OK,65,63,984,65,2014-10-01T01:40:00,0,28072754,184675
OK,65,63,984,65,2014-10-01T01:45:00,0,28073201,184675
OK,65,63,984,65,2014-10-01T01:50:00,0,28073649,184675
OK,65,63,984,65,2014-10-01T01:55:00,0,28073967,184675
OK,65,63,984,65,2014-10-01T02:00:00,0,28074416,184675
OK,65,63,984,65,2014-10-01T02:05:00,0,28074856,184675
OK,65,63,984,65,2014-10-01T02:10:00,0,28075305,184675
OK,65,63,984,65,2014-10-01T02:15:00,0,28075754,184675
OK,65,63,984,65,2014-10-01T02:20:00,0,28076137,184675
OK,65,63,984,65,2014-10-01T02:25:00,0,28076586,184675
OK,65,63,984,65,2014-10-01T02:30:00,0,28077035,184675
OK,65,63,984,65,2014-10-01T02:35:00,0,28077484,184675
OK,65,63,984,65,2014-10-01T02:40:00,0,28077887,184675
OK,65,63,984,65,2014-10-01T02:45:00,0,28078336,184675
OK,65,63,984,65,2014-10-01T02:50:00,0,28078781,184675
OK,65,63,984,65,2014-10-01T02:55:00,0,28079230,184675
OK,65,63,984,65,2014-10-01T03:00:00,0,28079672,184675
OK,65,63,984,65,2014-10-01T03:05:00,0,28080121,184675
OK,65,63,984,65,2014-10-01T03:10:00,0,28080455,184675
OK,65,63,984,65,2014-10-01T03:15:00,0,28080904,184675
OK,65,63,984,65,2014-10-01T03:20:00,0,28081353,184675
OK,65,63,984,65,2014-10-01T03:25:00,0,28081800,184675
OK,65,63,984,65,2014-10-01T03:30:00,0,28082249,184675
OK,65,63,984,65,2014-10-01T03:35:00,0,28082682,184675
OK,85,48,984,85,2014-10-01T03:40:00,1,28083114,184675
OK,80,51,984,80,2014-10-01T03:45:00,2,28083563,184675
OK,75,55,984,75,2014-10-01T03:50:00,1,28084012,184675
OK,75,55,984,75,2014-10-01T03:55:00,0,28084453,184675
OK,75,55,984,75,2014-10-01T04:00:00,0,28084878,184675
OK,61,67,984,61,2014-10-01T04:05:00,1,28085327,184675
OK,61,67,984,61,2014-10-01T04:10:00,0,28085772,184675
OK,93,44,984,93,2014-10-01T04:15:00,1,28086221,184675
OK,93,44,984,93,2014-10-01T04:20:00,1,28086663,184675
OK,70,59,984,70,2014-10-01T04:25:00,1,28087112,184675
OK,70,59,984,70,2014-10-01T04:30:00,1,28087557,184675
OK,70,59,984,70,2014-10-01T04:35:00,0,28088006,184675
OK,79,52,984,79,2014-10-01T04:40:00,2,28088430,184675
OK,84,49,984,84,2014-10-01T04:45:00,6,28088879,184675
OK,84,49,984,84,2014-10-01T04:50:00,8,28089309,184675
OK,86,48,984,86,2014-10-01T04:55:00,4,28089758,184675
OK,87,47,984,87,2014-10-01T05:00:00,3,28090207,184675
OK,98,42,984,98,2014-10-01T05:05:00,3,28090551,184675
OK,79,52,984,79,2014-10-01T05:10:00,3,28091000,184675
OK,75,55,984,75,2014-10-01T05:15:00,2,28091449,184675
OK,96,43,984,96,2014-10-01T05:20:00,1,28091866,184675
OK,96,43,984,96,2014-10-01T05:25:00,1,28092315,184675
OK,78,53,984,78,2014-10-01T05:30:00,2,28092759,184675
OK,91,45,984,91,2014-10-01T05:35:00,4,28093200,184675
OK,91,45,984,91,2014-10-01T05:40:00,0,28093631,184675
OK,99,41,984,99,2014-10-01T05:45:00,3,28094080,184675
OK,96,43,984,96,2014-10-01T05:50:00,6,28094491,184675
OK,97,42,984,97,2014-10-01T05:55:00,4,28094936,184675
OK,102,40,984,102,2014-10-01T06:00:00,1,28095383,184675
OK,102,40,984,102,2014-10-01T06:05:00,3,28095832,184675
OK,97,42,984,97,2014-10-01T06:10:00,6,28096245,184675
OK,97,42,984,97,2014-10-01T06:15:00,7,28096694,184675
OK,81,51,984,81,2014-10-01T06:20:00,0,28097128,184675
OK,95,43,984,95,2014-10-01T06:25:00,3,28097577,184675
OK,84,49,984,84,2014-10-01T06:30:00,5,28098026,184675
OK,81,51,984,81,2014-10-01T06:35:00,6,28098463,184675
OK,86,48,984,86,2014-10-01T06:40:00,5,28098907,184675
OK,84,49,984,84,2014-10-01T06:45:00,2,28099355,184675
OK,95,43,984,95,2014-10-01T06:50:00,3,28099698,184675
OK,98,42,984,98,2014-10-01T06:55:00,1,28100147,184675
OK,77,53,984,77,2014-10-01T07:00:00,4,28100454,184675
OK,85,48,984,85,2014-10-01T07:10:00,4,28101274,184675
OK,76,54,984,76,2014-10-01T07:15:00,6,28101723,184675
OK,68,60,984,68,2014-10-01T07:20:00,4,28102159,184675
OK,82,50,984,82,2014-10-01T07:25:00,2,28102608,184675
OK,84,49,984,84,2014-10-01T07:30:00,2,28103036,184675
OK,84,49,984,84,2014-10-01T07:35:00,2,28103482,184675
OK,63,65,984,63,2014-10-01T07:40:00,0,28103927,184675
OK,88,47,984,88,2014-10-01T07:45:00,2,28104372,184675
OK,76,54,984,76,2014-10-01T07:50:00,6,28104813,184675
OK,79,52,984,79,2014-10-01T07:55:00,8,28105258,184675
OK,97,42,984,97,2014-10-01T08:00:00,6,28105698,184675
OK,92,45,984,92,2014-10-01T08:05:00,6,28106147,184675
OK,88,47,984,88,2014-10-01T08:10:00,5,28106584,184675
OK,70,59,984,70,2014-10-01T08:15:00,2,28106990,184675
OK,69,60,984,69,2014-10-01T08:20:00,2,28107422,184675
OK,92,45,984,92,2014-10-01T08:25:00,6,28107871,184675
OK,87,47,984,87,2014-10-01T08:30:00,8,28108310,184675
OK,65,63,984,65,2014-10-01T08:35:00,6,28108759,184675
OK,85,48,984,85,2014-10-01T08:40:00,5,28109187,184675
OK,69,60,984,69,2014-10-01T08:45:00,4,28109636,184675
OK,102,40,984,102,2014-10-01T08:50:00,4,28109979,184675
OK,102,40,984,102,2014-10-01T08:55:00,5,28110428,184675
OK,83,49,984,83,2014-10-01T09:00:00,2,28110851,184675
OK,86,48,984,86,2014-10-01T09:05:00,4,28111300,184675
OK,77,53,984,77,2014-10-01T09:10:00,9,28111729,184675
OK,88,47,984,88,2014-10-01T09:15:00,5,28112178,184675
OK,70,59,984,70,2014-10-01T09:20:00,5,28112519,184675
OK,70,59,984,70,2014-10-01T09:25:00,5,28112968,184675
OK,75,55,984,75,2014-10-01T09:30:00,1,28113392,184675
OK,75,55,984,75,2014-10-01T09:35:00,0,28113841,184675
OK,75,55,984,75,2014-10-01T09:40:00,0,28114273,184675
OK,75,55,984,75,2014-10-01T09:45:00,0,28114722,184675
OK,85,48,984,85,2014-10-01T09:50:00,5,28115076,184675
OK,88,47,984,88,2014-10-01T10:00:00,5,28115937,184675
OK,88,47,984,88,2014-10-01T10:05:00,5,28116386,184675
OK,89,46,984,89,2014-10-01T10:10:00,4,28116794,184675
OK,81,51,984,81,2014-10-01T10:15:00,6,28117243,184675
OK,79,52,984,79,2014-10-01T10:20:00,3,28117668,184675
OK,76,54,984,76,2014-10-01T10:25:00,2,28118117,184675
OK,103,40,984,103,2014-10-01T10:30:00,4,28118562,184675
OK,101,41,984,101,2014-10-01T10:35:00,5,28119009,184675
OK,68,60,984,68,2014-10-01T10:40:00,2,28119453,184675
OK,56,74,984,56,2014-10-01T10:45:00,2,28119901,184675
OK,87,47,984,87,2014-10-01T10:50:00,4,28120349,184675
OK,87,47,984,87,2014-10-01T10:55:00,5,28120798,184675
OK,86,48,984,86,2014-10-01T11:00:00,6,28121181,184675
OK,89,46,984,89,2014-10-01T11:05:00,10,28121630,184675
OK,104,39,984,104,2014-10-01T11:10:00,10,28122068,184675
OK,104,39,984,104,2014-10-01T11:15:00,5,28122517,184675
OK,81,51,984,81,2014-10-01T11:20:00,6,28122958,184675
OK,89,46,984,89,2014-10-01T11:25:00,3,28123407,184675
OK,64,64,984,64,2014-10-01T11:30:00,1,28123839,184675
OK,96,43,984,96,2014-10-01T11:35:00,2,28124288,184675
OK,96,43,984,96,2014-10-01T11:40:00,3,28124690,184675
OK,94,44,984,94,2014-10-01T11:45:00,2,28125139,184675
OK,90,46,984,90,2014-10-01T11:50:00,3,28125568,184675
OK,98,42,984,98,2014-10-01T11:55:00,6,28126017,184675
OK,93,44,984,93,2014-10-01T12:00:00,4,28126369,184675
OK,73,56,984,73,2014-10-01T12:10:00,4,28127267,184675
OK,84,49,984,84,2014-10-01T12:15:00,3,28127716,184675
OK,84,49,984,84,2014-10-01T12:20:00,3,28128144,184675
OK,108,38,984,108,2014-10-01T12:25:00,4,28128593,184675
OK,94,44,984,94,2014-10-01T12:30:00,6,28129028,184675
OK,92,45,984,92,2014-10-01T12:35:00,6,28129477,184675
OK,92,45,984,92,2014-10-01T12:40:00,3,28129911,184675
OK,76,54,984,76,2014-10-01T12:45:00,0,28130360,184675
OK,135,30,984,135,2014-10-01T12:50:00,1,28130788,184675
OK,135,30,984,135,2014-10-01T12:55:00,1,28131237,184675
OK,85,48,984,85,2014-10-01T13:00:00,5,28131674,184675
OK,88,47,984,88,2014-10-01T13:05:00,7,28132123,184675
OK,93,44,984,93,2014-10-01T13:10:00,4,28132561,184675
OK,92,45,984,92,2014-10-01T13:15:00,5,28133008,184675
OK,90,46,984,90,2014-10-01T13:20:00,7,28133446,184675
OK,96,43,984,96,2014-10-01T13:25:00,6,28133895,184675
OK,93,44,984,93,2014-10-01T13:30:00,4,28134334,184675
OK,93,44,984,93,2014-10-01T13:35:00,4,28134783,184675
OK,94,44,984,94,2014-10-01T13:40:00,3,28135202,184675
OK,85,48,984,85,2014-10-01T13:45:00,6,28135651,184675
OK,88,47,984,88,2014-10-01T13:50:00,6,28136088,184675
OK,84,49,984,84,2014-10-01T13:55:00,3,28136537,184675
OK,91,45,984,91,2014-10-01T14:00:00,7,28136977,184675
OK,91,45,984,91,2014-10-01T14:05:00,7,28137426,184675
OK,95,43,984,95,2014-10-01T14:10:00,2,28137860,184675
OK,93,44,984,93,2014-10-01T14:15:00,0,28138309,184675
OK,93,44,984,93,2014-10-01T14:20:00,2,28138737,184675
OK,75,55,984,75,2014-10-01T14:25:00,3,28139186,184675
OK,74,56,984,74,2014-10-01T14:30:00,3,28139597,184675
OK,92,45,984,92,2014-10-01T14:35:00,4,28140046,184675
OK,91,45,984,91,2014-10-01T14:40:00,5,28140488,184675
OK,69,60,984,69,2014-10-01T14:45:00,2,28140937,184675
OK,95,43,984,95,2014-10-01T14:50:00,3,28141363,184675
OK,99,41,984,99,2014-10-01T14:55:00,4,28141812,184675
OK,87,47,984,87,2014-10-01T15:00:00,5,28142240,184675
OK,82,50,984,82,2014-10-01T15:05:00,4,28142689,184675
OK,79,52,984,79,2014-10-01T15:10:00,2,28143116,184675
OK,79,52,984,79,2014-10-01T15:15:00,4,28143565,184675
OK,77,53,984,77,2014-10-01T15:20:00,3,28144013,184675
OK,77,53,984,77,2014-10-01T15:25:00,0,28144462,184675
OK,100,41,984,100,2014-10-01T15:30:00,6,28144883,184675
OK,100,41,984,100,2014-10-01T15:35:00,8,28145297,184675
OK,88,47,984,88,2014-10-01T15:40:00,2,28145746,184675
OK,86,48,984,86,2014-10-01T15:45:00,4,28146195,184675
OK,92,45,984,92,2014-10-01T15:50:00,4,28146644,184675
OK,97,42,984,97,2014-10-01T15:55:00,1,28147052,184675
OK,79,52,984,79,2014-10-01T16:00:00,2,28147496,184675
OK,74,56,984,74,2014-10-01T16:05:00,4,28147945,184675
OK,70,59,984,70,2014-10-01T16:10:00,1,28148346,184675
OK,70,59,984,70,2014-10-01T16:15:00,0,28148795,184675
OK,70,59,984,70,2014-10-01T16:20:00,0,28149234,184675
OK,79,52,984,79,2014-10-01T16:25:00,3,28149683,184675
OK,106,39,984,106,2014-10-01T16:30:00,7,28150109,184675
OK,96,43,984,96,2014-10-01T16:35:00,6,28150558,184675
OK,71,58,984,71,2014-10-01T16:40:00,5,28150976,184675
OK,73,56,984,73,2014-10-01T16:45:00,4,28151425,184675
OK,75,55,984,75,2014-10-01T16:50:00,3,28151874,184675
OK,82,50,984,82,2014-10-01T17:00:00,1,28152323,184675
OK,77,53,984,77,2014-10-01T17:05:00,2,28152769,184675
OK,73,56,984,73,2014-10-01T17:10:00,1,28153216,184675
OK,73,56,984,73,2014-10-01T17:15:00,0,28153665,184675
OK,66,62,984,66,2014-10-01T17:20:00,1,28154075,184675
OK,66,62,984,66,2014-10-01T17:25:00,3,28154524,184675
OK,62,66,984,62,2014-10-01T17:30:00,3,28154966,184675
OK,67,61,984,67,2014-10-01T17:35:00,3,28155414,184675
OK,90,46,984,90,2014-10-01T17:40:00,2,28155832,184675
OK,102,40,984,102,2014-10-01T17:45:00,2,28156281,184675
OK,60,69,984,60,2014-10-01T17:50:00,1,28156729,184675
OK,60,69,984,60,2014-10-01T17:55:00,1,28157168,184675
OK,60,69,984,60,2014-10-01T18:00:00,0,28157598,184675
OK,54,76,984,54,2014-10-01T18:05:00,1,28158046,184675
OK,54,76,984,54,2014-10-01T18:10:00,1,28158490,184675
OK,54,76,984,54,2014-10-01T18:15:00,0,28158936,184675
OK,54,76,984,54,2014-10-01T18:20:00,0,28159382,184675
OK,54,76,984,54,2014-10-01T18:25:00,0,28159717,184675
OK,54,76,984,54,2014-10-01T18:30:00,0,28160166,184675
OK,54,76,984,54,2014-10-01T18:35:00,0,28160615,184675
OK,59,70,984,59,2014-10-01T18:40:00,1,28161053,184675
OK,59,70,984,59,2014-10-01T18:45:00,0,28161502,184675
OK,73,56,984,73,2014-10-01T18:50:00,1,28161919,184675
OK,73,56,984,73,2014-10-01T18:55:00,1,28162368,184675
OK,73,56,984,73,2014-10-01T19:00:00,0,28162762,184675
OK,73,56,984,73,2014-10-01T19:05:00,0,28163201,184675
OK,73,56,984,73,2014-10-01T19:10:00,0,28163649,184675
OK,73,56,984,73,2014-10-01T19:15:00,0,28164098,184675
OK,73,56,984,73,2014-10-01T19:20:00,0,28164529,184675
OK,77,53,984,77,2014-10-01T19:25:00,0,28164978,184675
OK,63,65,984,63,2014-10-01T19:30:00,2,28165403,184675
OK,66,62,984,66,2014-10-01T19:35:00,4,28165851,184675
OK,67,61,984,67,2014-10-01T19:40:00,1,28166292,184675
OK,88,47,984,88,2014-10-01T19:45:00,1,28166654,184675
OK,88,47,984,88,2014-10-01T19:50:00,1,28167103,184675
OK,81,51,984,81,2014-10-01T19:55:00,2,28167532,184675
OK,72,57,984,72,2014-10-01T20:00:00,3,28167965,184675
OK,72,57,984,72,2014-10-01T20:05:00,1,28168414,184675
OK,72,57,984,72,2014-10-01T20:10:00,0,28168859,184675
OK,72,57,984,72,2014-10-01T20:15:00,0,28169308,184675
OK,96,43,984,96,2014-10-01T20:20:00,1,28169756,184675
OK,96,43,984,96,2014-10-01T20:25:00,0,28170182,184675
OK,90,46,984,90,2014-10-01T20:30:00,1,28170627,184675
OK,75,55,984,75,2014-10-01T20:35:00,2,28171075,184675
OK,83,49,984,83,2014-10-01T20:40:00,1,28171512,184675
OK,83,49,984,83,2014-10-01T20:45:00,0,28171958,184675
OK,83,49,984,83,2014-10-01T20:50:00,0,28172406,184675
OK,83,49,984,83,2014-10-01T20:55:00,0,28172852,184675
OK,111,37,984,111,2014-10-01T21:00:00,2,28173298,184675
OK,111,37,984,111,2014-10-01T21:05:00,2,28173747,184675
OK,70,59,984,70,2014-10-01T21:10:00,1,28174188,184675
OK,73,56,984,73,2014-10-01T21:15:00,2,28174637,184675
OK,77,53,984,77,2014-10-01T21:20:00,1,28175063,184675
OK,73,56,984,73,2014-10-01T21:25:00,2,28175459,184675
OK,75,55,984,75,2014-10-01T21:30:00,3,28175908,184675
OK,100,41,984,100,2014-10-01T21:35:00,2,28176357,184675
OK,83,49,984,83,2014-10-01T21:40:00,1,28176806,184675
OK,83,49,984,83,2014-10-01T21:45:00,0,28177162,184675
OK,83,49,984,83,2014-10-01T21:50:00,0,28177602,184675
OK,79,52,984,79,2014-10-01T21:55:00,1,28178048,184675
OK,79,52,984,79,2014-10-01T22:00:00,0,28178497,184675
OK,79,52,984,79,2014-10-01T22:05:00,0,28178944,184675
OK,79,52,984,79,2014-10-01T22:10:00,0,28179378,184675
OK,79,52,984,79,2014-10-01T22:15:00,0,28179821,184675
OK,79,52,984,79,2014-10-01T22:20:00,0,28180268,184675
OK,79,52,984,79,2014-10-01T22:25:00,0,28180666,184675
OK,79,52,984,79,2014-10-01T22:30:00,0,28181115,184675
OK,63,65,984,63,2014-10-01T22:35:00,2,28181539,184675
OK,67,61,984,67,2014-10-01T22:40:00,2,28181987,184675
OK,67,61,984,67,2014-10-01T22:45:00,0,28182434,184675
OK,67,61,984,67,2014-10-01T22:50:00,0,28182883,184675
OK,67,61,984,67,2014-10-01T22:55:00,0,28183300,184675
OK,67,61,984,67,2014-10-01T23:00:00,0,28183733,184675
OK,67,61,984,67,2014-10-01T23:05:00,0,28184178,184675
OK,67,61,984,67,2014-10-01T23:10:00,0,28184627,184675
OK,67,61,984,67,2014-10-01T23:15:00,0,28185062,184675
OK,67,61,984,67,2014-10-01T23:20:00,0,28185510,184675
OK,67,61,984,67,2014-10-01T23:25:00,0,28185941,184675
OK,67,61,984,67,2014-10-01T23:30:00,0,28186333,184675
OK,67,61,984,67,2014-10-01T23:40:00,0,28187180,184675
OK,67,61,984,67,2014-10-01T23:55:00,0,28188512,184675
OK,67,61,984,67,2014-10-02T00:05:00,0,28189397,184675
OK,67,61,984,67,2014-10-02T00:10:00,0,28189819,184675
OK,67,61,984,67,2014-10-02T00:15:00,0,28190268,184675
OK,67,61,984,67,2014-10-02T00:20:00,0,28190621,184675
OK,67,61,984,67,2014-10-02T00:30:00,0,28191519,184675
OK,67,61,984,67,2014-10-02T00:35:00,0,28191825,184675
OK,88,47,984,88,2014-10-02T00:45:00,1,28192707,184675
OK,88,47,984,88,2014-10-02T00:50:00,0,28193151,184675
OK,88,47,984,88,2014-10-02T00:55:00,0,28193518,184675
OK,108,38,984,108,2014-10-02T01:05:00,0,28194416,184675
OK,62,66,984,62,2014-10-02T01:10:00,1,28194865,184675
OK,62,66,984,62,2014-10-02T01:15:00,0,28195101,184675
OK,62,66,984,62,2014-10-02T01:25:00,0,28195999,184675
OK,62,66,984,62,2014-10-02T01:30:00,0,28196284,184675
OK,62,66,984,62,2014-10-02T01:35:00,0,28196732,184675
OK,62,66,984,62,2014-10-02T01:40:00,0,28197155,184675
OK,62,66,984,62,2014-10-02T01:45:00,0,28197604,184675
OK,62,66,984,62,2014-10-02T01:50:00,0,28198052,184675
OK,62,66,984,62,2014-10-02T01:55:00,0,28198500,184675
OK,62,66,984,62,2014-10-02T02:00:00,0,28198949,184675
OK,62,66,984,62,2014-10-02T02:05:00,0,28199321,184675
OK,62,66,984,62,2014-10-02T02:10:00,0,28199763,184675
OK,62,66,984,62,2014-10-02T02:15:00,0,28200205,184675
OK,62,66,984,62,2014-10-02T02:20:00,0,28200648,184675
OK,62,66,984,62,2014-10-02T02:25:00,0,28201097,184675
OK,62,66,984,62,2014-10-02T02:30:00,0,28201528,184675
OK,62,66,984,62,2014-10-02T02:45:00,0,28202426,184675
OK,62,66,984,62,2014-10-02T02:50:00,0,28202868,184675
OK,62,66,984,62,2014-10-02T02:55:00,0,28203316,184675
OK,62,66,984,62,2014-10-02T03:00:00,0,28203751,184675
OK,62,66,984,62,2014-10-02T03:10:00,0,28204200,184675
OK,62,66,984,62,2014-10-02T03:25:00,0,28204649,184675
OK,62,66,984,62,2014-10-02T03:30:00,0,28205098,184675
OK,71,58,984,71,2014-10-02T03:35:00,0,28205526,184675
OK,71,58,984,71,2014-10-02T03:40:00,0,28205973,184675
OK,71,58,984,71,2014-10-02T03:45:00,0,28206356,184675
OK,71,58,984,71,2014-10-02T03:55:00,0,28207254,184675
OK,111,37,984,111,2014-10-02T04:00:00,1,28207674,184675
OK,111,37,984,111,2014-10-02T04:05:00,0,28208122,184675
OK,111,37,984,111,2014-10-02T04:10:00,0,28208549,184675
OK,111,37,984,111,2014-10-02T04:15:00,0,28208998,184675
OK,96,43,984,96,2014-10-02T04:20:00,1,28209436,184675
OK,96,43,984,96,2014-10-02T04:25:00,0,28209885,184675
OK,68,60,984,68,2014-10-02T04:30:00,1,28210308,184675
OK,68,60,984,68,2014-10-02T04:35:00,0,28210757,184675
OK,100,41,984,100,2014-10-02T04:40:00,2,28211182,184675
OK,96,43,984,96,2014-10-02T04:45:00,1,28211626,184675
OK,96,43,984,96,2014-10-02T04:50:00,0,28212004,184675
OK,83,49,984,83,2014-10-02T05:00:00,0,28212882,184675
OK,93,44,984,93,2014-10-02T05:05:00,2,28213331,184675
OK,92,45,984,92,2014-10-02T05:10:00,1,28213769,184675
OK,79,52,984,79,2014-10-02T05:15:00,0,28214218,184675
OK,79,52,984,79,2014-10-02T05:20:00,0,28214631,184675
OK,79,52,984,79,2014-10-02T05:25:00,0,28215080,184675
OK,79,52,984,79,2014-10-02T05:30:00,0,28215496,184675
OK,79,52,984,79,2014-10-02T05:35:00,0,28215945,184675
OK,102,40,984,102,2014-10-02T05:40:00,1,28216284,184675
OK,102,40,984,102,2014-10-02T05:45:00,0,28216724,184675
OK,102,40,984,102,2014-10-02T05:50:00,0,28217171,184675
OK,92,45,984,92,2014-10-02T05:55:00,3,28217620,184675
OK,103,40,984,103,2014-10-02T06:00:00,3,28218059,184675
OK,120,34,984,120,2014-10-02T06:05:00,4,28218508,184675
OK,146,28,984,146,2014-10-02T06:10:00,1,28218928,184675
OK,113,36,984,113,2014-10-02T06:15:00,6,28219377,184675
OK,109,38,984,109,2014-10-02T06:20:00,6,28219750,184675
OK,96,43,984,96,2014-10-02T06:30:00,6,28220633,184675
OK,95,43,984,95,2014-10-02T06:35:00,5,28221082,184675
OK,95,43,984,95,2014-10-02T06:40:00,4,28221463,184675
OK,98,42,984,98,2014-10-02T06:45:00,3,28221749,184675
OK,110,37,984,110,2014-10-02T07:00:00,3,28222343,184675
OK,96,43,984,96,2014-10-02T07:05:00,2,28222792,184675
OK,96,43,984,96,2014-10-02T07:10:00,2,28223223,184675
OK,119,34,984,119,2014-10-02T07:15:00,0,28223658,184675
OK,119,34,984,119,2014-10-02T07:20:00,0,28224106,184675
OK,109,38,984,109,2014-10-02T07:25:00,1,28224461,184675
OK,109,38,984,109,2014-10-02T07:30:00,1,28224910,184675
OK,88,47,984,88,2014-10-02T07:35:00,1,28225359,184675
OK,88,47,984,88,2014-10-02T07:40:00,1,28225681,184675
OK,74,56,984,74,2014-10-02T07:50:00,5,28226571,184675
OK,73,56,984,73,2014-10-02T07:55:00,4,28227020,184675
OK,114,36,984,114,2014-10-02T08:00:00,1,28227435,184675
OK,87,47,984,87,2014-10-02T08:05:00,2,28227884,184675
OK,89,46,984,89,2014-10-02T08:10:00,0,28228243,184675
OK,93,44,984,93,2014-10-02T08:20:00,1,28229102,184675
OK,86,48,984,86,2014-10-02T08:25:00,5,28229551,184675
OK,108,38,984,108,2014-10-02T08:30:00,1,28229901,184675
OK,90,46,984,90,2014-10-02T08:35:00,4,28230350,184675
OK,98,42,984,98,2014-10-02T08:40:00,1,28230716,184675
OK,98,42,984,98,2014-10-02T08:45:00,0,28231165,184675
OK,77,53,984,77,2014-10-02T08:50:00,4,28231588,184675
OK,65,63,984,65,2014-10-02T08:55:00,1,28232037,184675
OK,78,53,984,78,2014-10-02T09:00:00,2,28232379,184675
OK,64,64,984,64,2014-10-02T09:10:00,0,28232828,184675
OK,64,64,984,64,2014-10-02T09:15:00,3,28233277,184675
OK,75,55,984,75,2014-10-02T09:20:00,2,28233701,184675
OK,106,39,984,106,2014-10-02T09:25:00,1,28234150,184675
OK,106,39,984,106,2014-10-02T09:30:00,0,28234483,184675
OK,104,39,984,104,2014-10-02T09:40:00,0,28235359,184675
OK,67,61,984,67,2014-10-02T09:45:00,3,28235808,184675
OK,75,55,984,75,2014-10-02T09:50:00,2,28236251,184675
OK,72,57,984,72,2014-10-02T09:55:00,4,28236698,184675
OK,85,48,984,85,2014-10-02T10:00:00,2,28237101,184675
OK,116,35,984,116,2014-10-02T10:05:00,0,28237549,184675
OK,81,51,984,81,2014-10-02T10:10:00,6,28237997,184675
OK,88,47,984,88,2014-10-02T10:15:00,9,28238444,184675
OK,93,44,984,93,2014-10-02T10:20:00,7,28238885,184675
OK,82,50,984,82,2014-10-02T10:25:00,5,28239334,184675
OK,82,50,984,82,2014-10-02T10:30:00,0,28239764,184675
OK,75,55,984,75,2014-10-02T10:35:00,6,28240213,184675
OK,85,48,984,85,2014-10-02T10:40:00,5,28240657,184675
OK,85,48,984,85,2014-10-02T10:45:00,3,28241106,184675
OK,61,67,984,61,2014-10-02T10:50:00,0,28241538,184675
OK,78,53,984,78,2014-10-02T10:55:00,6,28241986,184675
OK,116,35,984,116,2014-10-02T11:00:00,1,28242382,184675
OK,116,35,984,116,2014-10-02T11:05:00,0,28242831,184675
OK,74,56,984,74,2014-10-02T11:10:00,8,28243280,184675
OK,74,56,984,74,2014-10-02T11:15:00,8,28243606,184675
OK,87,47,984,87,2014-10-02T11:20:00,3,28244043,184675
OK,87,47,984,87,2014-10-02T11:25:00,1,28244472,184675
OK,87,47,984,87,2014-10-02T11:30:00,0,28244921,184675
OK,74,56,984,74,2014-10-02T11:35:00,3,28245370,184675
OK,71,58,984,71,2014-10-02T11:40:00,0,28245776,184675
OK,71,58,984,71,2014-10-02T11:45:00,0,28246225,184675
OK,72,57,984,72,2014-10-02T11:50:00,5,28246662,184675
OK,89,46,984,89,2014-10-02T11:55:00,8,28247111,184675
OK,90,46,984,90,2014-10-02T12:00:00,6,28247557,184675
OK,88,47,984,88,2014-10-02T12:05:00,1,28247987,184675
OK,88,47,984,88,2014-10-02T12:10:00,0,28248436,184675
OK,60,69,984,60,2014-10-02T12:15:00,2,28248883,184675
OK,66,62,984,66,2014-10-02T12:20:00,1,28249311,184675
OK,84,49,984,84,2014-10-02T12:25:00,4,28249755,184675
OK,91,45,984,91,2014-10-02T12:30:00,1,28250174,184675
OK,87,47,984,87,2014-10-02T12:35:00,3,28250572,184675
OK,106,39,984,106,2014-10-02T13:20:00,9,28251897,184675
OK,99,41,984,99,2014-10-02T13:30:00,1,28252481,184675
OK,84,49,984,84,2014-10-02T13:35:00,0,28252923,184675
OK,84,49,984,84,2014-10-02T13:40:00,0,28253340,184675
OK,90,46,984,90,2014-10-02T13:50:00,2,28254194,184675
OK,84,49,984,84,2014-10-02T13:55:00,3,28254515,184675
OK,102,40,984,102,2014-10-02T14:10:00,2,28255092,184675
OK,99,41,984,99,2014-10-02T14:15:00,5,28255541,184675
OK,96,43,984,96,2014-10-02T14:20:00,4,28255969,184675
OK,97,42,984,97,2014-10-02T14:25:00,0,28256418,184675
OK,91,45,984,91,2014-10-02T14:30:00,1,28256846,184675
OK,91,45,984,91,2014-10-02T14:35:00,5,28257295,184675
OK,85,48,984,85,2014-10-02T14:40:00,5,28257736,184675
OK,93,44,984,93,2014-10-02T14:45:00,3,28258184,184675
OK,92,45,984,92,2014-10-02T14:50:00,5,28258617,184675
OK,92,45,984,92,2014-10-02T14:55:00,3,28259063,184675
OK,88,47,984,88,2014-10-02T15:00:00,3,28259512,184675
OK,88,47,984,88,2014-10-02T15:05:00,5,28259959,184675
OK,97,42,984,97,2014-10-02T15:10:00,6,28260392,184675
OK,82,50,984,82,2014-10-02T15:15:00,5,28260841,184675
OK,75,55,984,75,2014-10-02T15:20:00,3,28261281,184675
OK,102,40,984,102,2014-10-02T15:25:00,3,28261663,184675
OK,102,40,984,102,2014-10-02T15:30:00,2,28262093,184675
OK,96,43,984,96,2014-10-02T15:40:00,4,28262986,184675
OK,101,41,984,101,2014-10-02T15:45:00,2,28263424,184675
OK,91,45,984,91,2014-10-02T15:50:00,0,28263865,184675
OK,91,45,984,91,2014-10-02T15:55:00,0,28264267,184675
OK,102,40,984,102,2014-10-02T16:00:00,4,28264716,184675
OK,94,44,984,94,2014-10-02T16:05:00,1,28265154,184675
OK,89,46,984,89,2014-10-02T16:10:00,1,28265594,184675
OK,89,46,984,89,2014-10-02T16:15:00,0,28265990,184675
OK,86,48,984,86,2014-10-02T16:20:00,4,28266439,184675
OK,86,48,984,86,2014-10-02T16:25:00,4,28266888,184675
OK,86,48,984,86,2014-10-02T16:30:00,3,28267211,184675
OK,108,38,984,108,2014-10-02T16:40:00,0,28268109,184675
OK,74,56,984,74,2014-10-02T16:45:00,1,28268551,184675
OK,74,56,984,74,2014-10-02T16:50:00,0,28269000,184675
OK,69,60,984,69,2014-10-02T16:55:00,0,28269449,184675
OK,69,60,984,69,2014-10-02T17:00:00,0,28269884,184675
OK,69,60,984,69,2014-10-02T17:05:00,0,28270333,184675